QPF
0.01 0.01 0.01 0.01 0.02 0.02 0.02 0.02 0.02 0.01 0.01 0.01 0.01 0.01 0.01 0.02 0.02 0.02 0.02 0.02 0.02 0.02 0.02 0.01 0.02 0.01 0.02 0.03 0.05 0.08 0.09 0.10 0.14 0.18 0.22 0.21 0.18 0.15 0.12 0.10 0.10 0.10 0.09
0.01 0.01 0.01 0.01 0.01 0.01 0.01 0.00 0.00 0.00 0.00 0.00 0.00 0.00 0.00 0.00 0.00 0.01 0.01 0.01 0.02 0.02 0.02 0.01 0.01 0.01 0.01 0.01 0.02 0.04 0.05 0.08 0.12 0.15 0.18 0.18 0.18 0.17 0.13 0.10 0.08 0.07 0.09
0.00 0.00 0.00 0.00 0.00 0.00 0.00 0.00 0.00 0.00 0.00 0.00 0.00 0.00 0.00 0.00 0.00 0.00 0.01 0.01 0.01 0.01 0.01 0.01 0.01 0.01 0.01 0.01 0.02 0.02 0.05 0.07 0.09 0.13 0.17 0.18 0.19 0.20 0.16 0.13 0.12 0.11 0.10
0.00 0.00 0.00 0.00 0.00 0.00 0.00 0.00 0.00 0.00 0.00 0.00 0.00 0.00 0.00 0.00 0.00 0.00 0.00 0.00 0.00 0.00 0.00 0.00 0.00 0.00 0.01 0.01 0.01 0.02 0.04 0.05 0.06 0.09 0.13 0.16 0.19 0.23 0.23 0.19 0.15 0.14 0.11
0.00 0.00 0.00 0.00 0.00 0.00 0.00 0.00 0.00 0.00 0.01 0.01 0.00 0.00 0.00 0.00 0.00 0.00 0.00 0.00 0.00 0.00 0.00 0.00 0.00 0.00 0.00 0.01 0.01 0.02 0.02 0.04 0.05 0.07 0.09 0.12 0.14 0.17 0.22 0.21 0.17 0.13 0.11
0.00 0.00 0.00 0.00 0.00 0.00 0.00 0.00 0.00 0.00 0.00 0.00 0.00 0.00 0.00 0.00 0.00 0.00 0.00 0.00 0.00 0.00 0.00 0.00 0.00 0.00 0.00 0.00 0.01 0.01 0.02 0.03 0.03 0.05 0.07 0.11 0.14 0.16 0.18 0.18 0.16 0.14 0.10
0.00 0.00 0.00 0.00 0.00 0.00 0.00 0.00 0.00 0.00 0.00 0.00 0.00 0.00 0.00 0.00 0.00 0.00 0.00 0.00 0.00 0.00 0.00 0.00 0.00 0.00 0.00 0.00 0.00 0.00 0.00 0.01 0.02 0.04 0.05 0.09 0.13 0.14 0.15 0.16 0.14 0.13 0.12
0.00 0.00 0.00 0.00 0.00 0.00 0.00 0.00 0.00 0.00 0.00 0.00 0.00 0.00 0.00 0.00 0.00 0.00 0.00 0.00 0.00 0.00 0.00 0.00 0.00 0.00 0.00 0.00 0.00 0.00 0.00 0.00 0.01 0.04 0.06 0.08 0.11 0.14 0.16 0.18 0.19 0.17 0.15
0.00 0.00 0.00 0.00 0.00 0.00 0.00 0.00 0.00 0.00 0.00 0.00 0.00 0.00 0.00 0.00 0.00 0.00 0.00 0.00 0.00 0.00 0.00 0.00 0.00 0.00 0.00 0.00 0.00 0.00 0.00 0.00 0.01 0.02 0.04 0.07 0.11 0.12 0.14 0.18 0.23 0.23 0.19
0.00 0.00 0.00 0.00 0.00 0.00 0.00 0.00 0.00 0.00 0.00 0.00 0.00 0.00 0.00 0.00 0.00 0.00 0.00 0.00 0.00 0.00 0.00 0.00 0.00 0.00 0.00 0.00 0.01 0.01 0.00 0.00 0.00 0.00 0.02 0.03 0.06 0.09 0.12 0.15 0.20 0.25 0.25
0.00 0.00 0.00 0.00 0.00 0.00 0.00 0.00 0.00 0.00 0.00 0.00 0.00 0.00 0.00 0.00 0.00 0.00 0.00 0.00 0.00 0.00 0.00 0.00 0.00 0.00 0.00 0.00 0.00 0.00 0.01 0.01 0.00 0.00 0.01 0.02 0.03 0.06 0.08 0.11 0.15 0.21 0.27
0.00 0.00 0.00 0.00 0.00 0.00 0.00 0.00 0.00 0.00 0.00 0.00 0.00 0.00 0.00 0.00 0.00 0.00 0.00 0.00 0.00 0.00 0.00 0.00 0.00 0.00 0.00 0.00 0.00 0.00 0.01 0.01 0.01 0.01 0.01 0.01 0.02 0.04 0.06 0.07 0.12 0.16 0.22
0.00 0.00 0.00 0.00 0.00 0.00 0.00 0.00 0.00 0.00 0.00 0.00 0.00 0.00 0.00 0.00 0.00 0.00 0.00 0.00 0.00 0.00 0.00 0.00 0.00 0.00 0.00 0.00 0.00 0.00 0.01 0.01 0.01 0.01 0.01 0.01 0.01 0.02 0.05 0.06 0.08 0.13 0.17
0.00 0.00 0.00 0.00 0.00 0.00 0.00 0.00 0.00 0.00 0.00 0.00 0.00 0.00 0.00 0.00 0.00 0.00 0.00 0.00 0.00 0.00 0.00 0.00 0.00 0.00 0.00 0.00 0.01 0.00 0.01 0.01 0.01 0.01 0.02 0.02 0.02 0.02 0.03 0.05 0.07 0.11 0.14
0.00 0.00 0.00 0.00 0.00 0.00 0.00 0.00 0.00 0.00 0.00 0.00 0.00 0.00 0.00 0.00 0.00 0.00 0.00 0.00 0.00 0.00 0.00 0.00 0.00 0.00 0.00 0.00 0.00 0.01 0.01 0.01 0.01 0.01 0.01 0.02 0.02 0.02 0.03 0.04 0.05 0.08 0.12
0.00 0.00 0.00 0.00 0.00 0.00 0.00 0.00 0.00 0.00 0.00 0.00 0.00 0.00 0.00 0.00 0.00 0.00 0.00 0.00 0.00 0.00 0.00 0.00 0.00 0.00 0.00 0.00 0.00 0.01 0.01 0.01 0.01 0.01 0.01 0.02 0.03 0.03 0.03 0.03 0.04 0.06 0.09
0.00 0.00 0.00 0.00 0.00 0.00 0.00 0.00 0.00 0.00 0.00 0.00 0.00 0.00 0.00 0.00 0.00 0.00 0.00 0.00 0.00 0.00 0.00 0.00 0.00 0.00 0.00 0.00 0.00 0.00 0.01 0.01 0.01 0.01 0.02 0.02 0.02 0.02 0.03 0.03 0.05 0.05 0.06
0.00 0.00 0.00 0.00 0.00 0.00 0.00 0.00 0.00 0.00 0.00 0.00 0.00 0.00 0.00 0.00 0.00 0.00 0.00 0.00 0.00 0.00 0.00 0.00 0.01 0.01 0.00 0.00 0.00 0.01 0.01 0.01 0.01 0.01 0.02 0.02 0.02 0.03 0.05 0.04 0.03 0.03 0.04
0.00 0.00 0.00 0.00 0.00 0.00 0.00 0.00 0.00 0.00 0.00 0.00 0.00 0.00 0.00 0.00 0.00 0.00 0.00 0.00 0.01 0.01 0.01 0.01 0.01 0.01 0.00 0.01 0.01 0.01 0.01 0.01 0.01 0.01 0.02 0.03 0.03 0.03 0.05 0.06 0.05 0.03 0.02
0.00 0.00 0.00 0.00 0.00 0.00 0.00 0.00 0.00 0.00 0.00 0.00 0.00 0.00 0.00 0.00 0.00 0.01 0.01 0.01 0.01 0.01 0.01 0.01 0.01 0.02 0.01 0.01 0.01 0.01 0.01 0.01 0.01 0.01 0.02 0.04 0.05 0.05 0.05 0.06 0.05 0.04 0.02
0.00 0.00 0.00 0.00 0.00 0.00 0.00 0.00 0.00 0.00 0.00 0.00 0.00 0.00 0.00 0.00 0.01 0.01 0.01 0.01 0.01 0.01 0.02 0.02 0.03 0.04 0.03 0.02 0.01 0.01 0.01 0.02 0.02 0.02 0.03 0.04 0.06 0.06 0.05 0.05 0.05 0.03 0.03
0.00 0.00 0.00 0.00 0.00 0.00 0.00 0.00 0.00 0.00 0.00 0.00 0.00 0.00 0.00 0.00 0.01 0.01 0.01 0.01 0.02 0.02 0.02 0.03 0.03 0.03 0.03 0.02 0.01 0.01 0.01 0.03 0.04 0.03 0.04 0.06 0.06 0.06 0.06 0.05 0.04 0.04 0.03
0.00 0.00 0.00 0.00 0.00 0.00 0.00 0.00 0.00 0.00 0.00 0.00 0.00 0.00 0.00 0.01 0.01 0.01 0.01 0.01 0.02 0.02 0.02 0.03 0.03 0.03 0.03 0.03 0.01 0.01 0.01 0.03 0.04 0.04 0.06 0.06 0.05 0.06 0.06 0.05 0.05 0.04 0.03
0.00 0.00 0.00 0.00 0.00 0.00 0.00 0.00 0.00 0.00 0.00 0.00 0.00 0.00 0.00 0.01 0.01 0.01 0.01 0.01 0.02 0.02 0.02 0.02 0.02 0.02 0.03 0.03 0.03 0.02 0.01 0.02 0.03 0.03 0.04 0.04 0.04 0.05 0.05 0.05 0.05 0.04 0.03
0.00 0.00 0.00 0.00 0.00 0.00 0.00 0.00 0.00 0.00 0.00 0.00 0.00 0.00 0.00 0.01 0.01 0.01 0.02 0.02 0.01 0.01 0.01 0.01 0.02 0.02 0.02 0.02 0.02 0.02 0.02 0.02 0.03 0.03 0.03 0.04 0.05 0.04 0.04 0.03 0.04 0.03 0.02
0.00 0.00 0.00 0.00 0.00 0.00 0.00 0.00 0.00 0.00 0.00 0.00 0.00 0.00 0.01 0.01 0.01 0.01 0.01 0.01 0.01 0.00 0.01 0.01 0.01 0.01 0.01 0.01 0.01 0.01 0.01 0.01 0.02 0.02 0.03 0.04 0.05 0.04 0.03 0.03 0.03 0.03 0.02
MSLP
1014.08 1014.16 1014.19 1014.14 1013.98 1013.73 1013.44 1013.15 1012.93 1012.81 1012.81 1012.92 1013.10 1013.32 1013.51 1013.63 1013.65 1013.57 1013.42 1013.24 1013.05 1012.92 1012.85 1012.86 1012.93 1013.04 1013.14 1013.21 1013.22 1013.17 1013.05 1012.90 1012.73 1012.59 1012.48 1012.42 1012.41 1012.43 1012.46 1012.48 1012.48 1012.46 1012.42
1013.94 1014.06 1014.11 1014.07 1013.91 1013.65 1013.35 1013.06 1012.86 1012.79 1012.86 1013.05 1013.32 1013.59 1013.81 1013.93 1013.92 1013.78 1013.56 1013.29 1013.03 1012.83 1012.72 1012.70 1012.76 1012.85 1012.94 1013.00 1012.99 1012.92 1012.80 1012.65 1012.50 1012.39 1012.32 1012.30 1012.32 1012.35 1012.37 1012.36 1012.29 1012.19 1012.05
1013.62 1013.79 1013.91 1013.91 1013.78 1013.55 1013.27 1013.01 1012.85 1012.82 1012.95 1013.20 1013.52 1013.83 1014.08 1014.19 1014.15 1013.96 1013.68 1013.34 1013.02 1012.76 1012.60 1012.53 1012.55 1012.60 1012.66 1012.69 1012.67 1012.59 1012.48 1012.36 1012.26 1012.20 1012.20 1012.24 1012.30 1012.36 1012.37 1012.32 1012.19 1011.99 1011.74
1013.26 1013.50 1013.70 1013.77 1013.70 1013.51 1013.27 1013.04 1012.91 1012.91 1013.07 1013.34 1013.68 1014.01 1014.26 1014.36 1014.29 1014.07 1013.74 1013.36 1012.99 1012.68 1012.47 1012.35 1012.31 1012.32 1012.34 1012.33 1012.29 1012.22 1012.13 1012.05 1012.02 1012.03 1012.10 1012.21 1012.33 1012.41 1012.42 1012.33 1012.14 1011.85 1011.50
1012.99 1013.31 1013.58 1013.73 1013.74 1013.60 1013.40 1013.19 1013.06 1013.06 1013.21 1013.47 1013.79 1014.09 1014.31 1014.39 1014.31 1014.07 1013.72 1013.32 1012.92 1012.58 1012.32 1012.16 1012.07 1012.03 1012.01 1011.97 1011.92 1011.85 1011.79 1011.76 1011.79 1011.88 1012.03 1012.20 1012.37 1012.48 1012.49 1012.38 1012.13 1011.78 1011.34
1012.90 1013.28 1013.63 1013.85 1013.91 1013.82 1013.64 1013.44 1013.29 1013.25 1013.34 1013.55 1013.81 1014.06 1014.24 1014.29 1014.19 1013.94 1013.59 1013.19 1012.80 1012.45 1012.17 1011.98 1011.85 1011.77 1011.70 1011.64 1011.57 1011.51 1011.48 1011.50 1011.59 1011.75 1011.95 1012.18 1012.38 1012.51 1012.53 1012.40 1012.13 1011.74 1011.26
1013.00 1013.42 1013.82 1014.09 1014.19 1014.13 1013.95 1013.73 1013.54 1013.44 1013.45 1013.57 1013.74 1013.92 1014.04 1014.05 1013.94 1013.70 1013.37 1013.00 1012.62 1012.29 1012.01 1011.81 1011.65 1011.54 1011.44 1011.35 1011.27 1011.22 1011.21 1011.26 1011.39 1011.59 1011.84 1012.10 1012.33 1012.47 1012.49 1012.37 1012.10 1011.71 1011.24
1013.26 1013.69 1014.10 1014.39 1014.50 1014.45 1014.25 1014.00 1013.75 1013.57 1013.49 1013.51 1013.59 1013.68 1013.73 1013.71 1013.59 1013.37 1013.08 1012.74 1012.41 1012.10 1011.84 1011.63 1011.46 1011.32 1011.20 1011.09 1011.00 1010.94 1010.94 1011.02 1011.17 1011.39 1011.66 1011.93 1012.17 1012.32 1012.35 1012.25 1012.02 1011.67 1011.24
1013.58 1013.99 1014.38 1014.65 1014.75 1014.67 1014.46 1014.16 1013.86 1013.61 1013.45 1013.37 1013.36 1013.37 1013.37 1013.31 1013.18 1012.98 1012.73 1012.44 1012.15 1011.88 1011.65 1011.44 1011.26 1011.11 1010.96 1010.83 1010.73 1010.66 1010.66 1010.74 1010.89 1011.11 1011.37 1011.64 1011.87 1012.03 1012.09 1012.03 1011.85 1011.57 1011.24
1013.87 1014.23 1014.56 1014.78 1014.84 1014.73 1014.49 1014.17 1013.83 1013.53 1013.31 1013.16 1013.07 1013.02 1012.97 1012.88 1012.75 1012.57 1012.35 1012.10 1011.85 1011.62 1011.40 1011.20 1011.02 1010.85 1010.69 1010.54 1010.42 1010.34 1010.32 1010.39 1010.53 1010.73 1010.97 1011.22 1011.45 1011.61 1011.69 1011.68 1011.58 1011.40 1011.18
1014.05 1014.33 1014.59 1014.74 1014.74 1014.59 1014.32 1013.99 1013.64 1013.32 1013.07 1012.88 1012.75 1012.66 1012.57 1012.46 1012.32 1012.14 1011.94 1011.73 1011.51 1011.29 1011.09 1010.90 1010.71 1010.52 1010.34 1010.18 1010.04 1009.94 1009.91 1009.96 1010.07 1010.25 1010.46 1010.69 1010.90 1011.07 1011.18 1011.22 1011.20 1011.13 1011.04
1014.10 1014.29 1014.45 1014.51 1014.44 1014.26 1013.98 1013.65 1013.31 1013.01 1012.76 1012.56 1012.42 1012.30 1012.18 1012.05 1011.89 1011.71 1011.51 1011.31 1011.10 1010.90 1010.70 1010.50 1010.31 1010.11 1009.92 1009.74 1009.58 1009.47 1009.43 1009.45 1009.54 1009.68 1009.87 1010.07 1010.27 1010.44 1010.57 1010.66 1010.71 1010.74 1010.77
1014.02 1014.12 1014.17 1014.14 1014.01 1013.79 1013.50 1013.20 1012.90 1012.63 1012.41 1012.23 1012.08 1011.94 1011.80 1011.64 1011.46 1011.26 1011.05 1010.84 1010.62 1010.42 1010.22 1010.02 1009.82 1009.62 1009.42 1009.23 1009.06 1008.94 1008.87 1008.88 1008.94 1009.06 1009.22 1009.40 1009.58 1009.75 1009.90 1010.03 1010.14 1010.25 1010.36
1013.86 1013.86 1013.81 1013.68 1013.49 1013.24 1012.97 1012.69 1012.44 1012.22 1012.04 1011.89 1011.74 1011.59 1011.43 1011.23 1011.02 1010.78 1010.54 1010.31 1010.08 1009.87 1009.66 1009.46 1009.26 1009.06 1008.85 1008.66 1008.49 1008.36 1008.28 1008.26 1008.31 1008.40 1008.54 1008.70 1008.87 1009.03 1009.19 1009.34 1009.50 1009.66 1009.83
1013.66 1013.57 1013.42 1013.21 1012.96 1012.69 1012.43 1012.19 1011.99 1011.82 1011.69 1011.56 1011.42 1011.25 1011.05 1010.81 1010.54 1010.27 1009.99 1009.72 1009.47 1009.25 1009.04 1008.84 1008.65 1008.45 1008.25 1008.05 1007.88 1007.74 1007.66 1007.62 1007.65 1007.72 1007.84 1007.98 1008.14 1008.30 1008.46 1008.63 1008.81 1008.99 1009.20
1013.44 1013.26 1013.03 1012.75 1012.45 1012.17 1011.93 1011.73 1011.58 1011.46 1011.36 1011.24 1011.10 1010.91 1010.66 1010.37 1010.05 1009.71 1009.39 1009.09 1008.82 1008.59 1008.38 1008.19 1008.00 1007.81 1007.62 1007.43 1007.25 1007.11 1007.01 1006.96 1006.96 1007.02 1007.11 1007.24 1007.40 1007.56 1007.73 1007.91 1008.10 1008.30 1008.52
1013.19 1012.95 1012.65 1012.32 1012.00 1011.72 1011.49 1011.33 1011.22 1011.14 1011.06 1010.95 1010.79 1010.56 1010.26 1009.91 1009.53 1009.14 1008.77 1008.44 1008.15 1007.91 1007.70 1007.51 1007.34 1007.16 1006.97 1006.78 1006.60 1006.45 1006.33 1006.25 1006.24 1006.27 1006.36 1006.48 1006.64 1006.81 1007.00 1007.20 1007.40 1007.62 1007.85
1012.91 1012.61 1012.27 1011.91 1011.58 1011.31 1011.12 1010.99 1010.92 1010.87 1010.80 1010.68 1010.49 1010.22 1009.87 1009.45 1009.00 1008.56 1008.14 1007.78 1007.47 1007.22 1007.01 1006.84 1006.67 1006.49 1006.31 1006.12 1005.93 1005.75 1005.61 1005.51 1005.47 1005.49 1005.56 1005.69 1005.86 1006.05 1006.27 1006.50 1006.74 1006.98 1007.22
1012.55 1012.23 1011.87 1011.51 1011.20 1010.96 1010.80 1010.72 1010.67 1010.64 1010.57 1010.43 1010.21 1009.88 1009.47 1008.99 1008.49 1007.99 1007.53 1007.13 1006.80 1006.54 1006.34 1006.16 1006.00 1005.83 1005.64 1005.43 1005.22 1005.02 1004.85 1004.73 1004.66 1004.66 1004.74 1004.87 1005.06 1005.29 1005.56 1005.84 1006.13 1006.41 1006.69
1012.11 1011.79 1011.45 1011.12 1010.85 1010.65 1010.54 1010.48 1010.46 1010.44 1010.36 1010.20 1009.93 1009.55 1009.08 1008.55 1007.99 1007.44 1006.94 1006.51 1006.16 1005.89 1005.68 1005.50 1005.33 1005.16 1004.96 1004.74 1004.51 1004.29 1004.09 1003.93 1003.84 1003.83 1003.90 1004.06 1004.28 1004.56 1004.88 1005.22 1005.58 1005.92 1006.25
1011.60 1011.32 1011.02 1010.75 1010.53 1010.39 1010.31 1010.29 1010.29 1010.26 1010.16 1009.97 1009.65 1009.23 1008.71 1008.12 1007.51 1006.92 1006.39 1005.93 1005.56 1005.27 1005.05 1004.86 1004.69 1004.51 1004.30 1004.07 1003.82 1003.57 1003.35 1003.18 1003.07 1003.05 1003.12 1003.29 1003.54 1003.87 1004.25 1004.67 1005.09 1005.51 1005.90
1011.07 1010.85 1010.62 1010.41 1010.26 1010.17 1010.13 1010.13 1010.13 1010.09 1009.96 1009.73 1009.37 1008.90 1008.33 1007.70 1007.05 1006.43 1005.86 1005.39 1005.00 1004.70 1004.46 1004.27 1004.09 1003.90 1003.69 1003.46 1003.20 1002.94 1002.71 1002.52 1002.40 1002.38 1002.45 1002.63 1002.91 1003.28 1003.71 1004.19 1004.68 1005.16 1005.61
1010.56 1010.42 1010.27 1010.14 1010.05 1010.00 1010.00 1010.00 1009.99 1009.91 1009.75 1009.47 1009.07 1008.55 1007.94 1007.28 1006.61 1005.96 1005.38 1004.89 1004.49 1004.18 1003.94 1003.74 1003.56 1003.38 1003.18 1002.95 1002.70 1002.45 1002.21 1002.03 1001.91 1001.88 1001.95 1002.13 1002.42 1002.80 1003.27 1003.78 1004.31 1004.85 1005.35
1010.11 1010.06 1009.99 1009.93 1009.90 1009.88 1009.89 1009.88 1009.83 1009.72 1009.50 1009.18 1008.73 1008.18 1007.54 1006.86 1006.18 1005.53 1004.94 1004.45 1004.05 1003.74 1003.50 1003.31 1003.14 1002.97 1002.79 1002.58 1002.36 1002.13 1001.91 1001.73 1001.61 1001.58 1001.65 1001.82 1002.09 1002.47 1002.93 1003.44 1003.99 1004.54 1005.06
1009.72 1009.76 1009.77 1009.78 1009.78 1009.78 1009.78 1009.74 1009.65 1009.48 1009.22 1008.84 1008.36 1007.78 1007.13 1006.45 1005.77 1005.13 1004.56 1004.07 1003.68 1003.38 1003.16 1002.98 1002.84 1002.70 1002.54 1002.38 1002.19 1001.99 1001.80 1001.64 1001.53 1001.49 1001.54 1001.68 1001.92 1002.26 1002.68 1003.16 1003.68 1004.21 1004.72
1009.38 1009.50 1009.58 1009.62 1009.65 1009.65 1009.62 1009.55 1009.41 1009.19 1008.87 1008.46 1007.95 1007.36 1006.72 1006.05 1005.40 1004.78 1004.24 1003.78 1003.41 1003.13 1002.93 1002.77 1002.65 1002.54 1002.43 1002.30 1002.15 1002.00 1001.84 1001.70 1001.60 1001.55 1001.57 1001.68 1001.86 1002.14 1002.49 1002.90 1003.36 1003.84 1004.31
Thickness
5742 5743 5742 5742 5740 5737 5735 5732 5729 5727 5726 5722 5718 5714 5711 5710 5709 5708 5707 5705 5703 5701 5699 5698 5696 5695 5694 5694 5694 5694 5695 5696 5698 5698 5701 5706 5710 5713 5715 5716 5716 5718 5720
5735 5737 5737 5737 5735 5732 5730 5727 5724 5721 5718 5714 5710 5706 5703 5700 5698 5697 5695 5693 5692 5690 5689 5688 5686 5686 5685 5684 5685 5685 5686 5688 5690 5689 5689 5692 5698 5706 5712 5713 5715 5717 5719
5732 5733 5733 5733 5731 5729 5726 5724 5719 5716 5712 5707 5702 5698 5694 5690 5687 5685 5684 5683 5682 5680 5679 5679 5678 5677 5676 5675 5675 5676 5676 5678 5681 5683 5682 5682 5686 5695 5704 5708 5711 5714 5717
5734 5732 5731 5730 5728 5727 5725 5720 5715 5710 5706 5701 5694 5688 5681 5676 5675 5674 5673 5673 5672 5671 5670 5670 5669 5669 5668 5668 5667 5668 5669 5670 5671 5674 5677 5679 5682 5683 5690 5699 5706 5710 5714
5734 5732 5732 5730 5728 5725 5720 5714 5709 5704 5699 5694 5688 5681 5675 5671 5668 5666 5664 5664 5663 5662 5662 5661 5661 5660 5660 5659 5660 5660 5660 5661 5663 5664 5667 5670 5674 5678 5680 5685 5694 5701 5708
5733 5731 5729 5726 5721 5717 5712 5706 5700 5695 5691 5685 5680 5674 5669 5664 5660 5657 5655 5653 5653 5653 5653 5653 5652 5652 5651 5651 5652 5652 5652 5653 5654 5657 5659 5660 5663 5668 5672 5676 5682 5689 5698
5727 5723 5720 5716 5711 5707 5702 5697 5690 5685 5681 5676 5671 5666 5662 5657 5653 5649 5646 5644 5643 5643 5643 5643 5643 5642 5643 5643 5644 5645 5645 5646 5647 5649 5651 5654 5657 5661 5665 5668 5673 5679 5688
5721 5718 5714 5708 5704 5700 5694 5688 5682 5677 5672 5668 5663 5659 5655 5650 5646 5643 5640 5637 5635 5635 5635 5635 5634 5634 5634 5635 5636 5637 5638 5639 5640 5642 5644 5646 5650 5654 5658 5661 5665 5669 5676
5715 5711 5707 5702 5698 5693 5687 5682 5676 5671 5666 5661 5657 5652 5648 5644 5640 5637 5634 5631 5629 5629 5628 5627 5626 5626 5626 5626 5627 5627 5629 5630 5632 5633 5636 5638 5642 5646 5651 5655 5659 5661 5665
5709 5706 5701 5697 5692 5687 5682 5677 5671 5665 5660 5655 5650 5647 5642 5638 5634 5630 5626 5624 5622 5620 5619 5618 5617 5617 5617 5617 5617 5618 5620 5621 5623 5625 5627 5630 5633 5637 5642 5648 5652 5656 5659
5703 5700 5697 5693 5688 5683 5677 5671 5665 5659 5654 5649 5645 5640 5635 5631 5627 5622 5619 5616 5614 5612 5610 5609 5608 5608 5608 5608 5608 5609 5610 5612 5614 5616 5619 5621 5624 5628 5633 5639 5644 5648 5652
5701 5698 5694 5689 5683 5677 5672 5666 5661 5655 5650 5645 5639 5634 5629 5624 5619 5615 5612 5609 5606 5604 5602 5600 5599 5598 5598 5598 5598 5598 5600 5601 5603 5606 5608 5612 5615 5619 5623 5628 5634 5640 5646
5699 5693 5689 5684 5678 5673 5667 5662 5657 5651 5646 5640 5634 5628 5622 5617 5612 5609 5605 5602 5599 5596 5594 5591 5589 5588 5588 5588 5588 5588 5589 5590 5592 5594 5597 5601 5604 5608 5613 5618 5624 5630 5637
5694 5688 5683 5678 5674 5669 5663 5658 5652 5647 5641 5634 5628 5622 5617 5612 5607 5603 5599 5595 5592 5588 5585 5583 5581 5579 5578 5577 5577 5577 5578 5579 5580 5583 5586 5590 5594 5598 5603 5608 5614 5620 5627
5691 5686 5680 5674 5669 5664 5659 5654 5648 5642 5636 5629 5622 5617 5612 5607 5602 5597 5593 5589 5585 5582 5578 5575 5572 5570 5568 5568 5566 5565 5566 5567 5568 5571 5574 5579 5583 5588 5593 5600 5605 5610 5616
5689 5685 5680 5673 5666 5661 5655 5650 5644 5638 5631 5624 5618 5613 5607 5602 5596 5592 5587 5582 5578 5574 5570 5566 5563 5561 5560 5559 5557 5555 5554 5554 5555 5558 5561 5566 5571 5577 5583 5590 5596 5602 5606
5687 5682 5676 5669 5663 5657 5652 5645 5640 5633 5627 5620 5614 5608 5602 5596 5591 5587 5582 5577 5572 5568 5563 5559 5555 5552 5550 5548 5546 5545 5544 5543 5544 5546 5548 5554 5561 5565 5570 5577 5583 5590 5598
5685 5679 5671 5665 5660 5654 5648 5642 5635 5629 5622 5615 5609 5603 5597 5592 5587 5581 5576 5571 5567 5561 5556 5552 5548 5544 5542 5540 5537 5535 5534 5534 5535 5536 5539 5541 5546 5552 5557 5563 5569 5577 5586
5682 5675 5669 5663 5657 5650 5644 5637 5630 5624 5617 5610 5604 5598 5592 5587 5582 5577 5572 5567 5561 5556 5551 5547 5542 5538 5535 5532 5530 5527 5525 5525 5526 5528 5530 5533 5536 5541 5546 5552 5558 5564 5573
5680 5673 5667 5660 5653 5647 5640 5632 5625 5618 5612 5606 5600 5594 5588 5582 5577 5572 5568 5563 5557 5552 5547 5542 5537 5532 5529 5526 5522 5520 5517 5517 5517 5518 5521 5525 5528 5532 5536 5542 5548 5554 5562
5679 5672 5664 5655 5649 5643 5636 5628 5621 5614 5609 5602 5596 5590 5584 5578 5574 5569 5564 5558 5553 5547 5542 5536 5532 5526 5522 5519 5516 5513 5510 5509 5509 5510 5512 5516 5521 5525 5529 5534 5542 5549 5556
5675 5668 5658 5651 5645 5639 5631 5624 5617 5612 5605 5598 5592 5586 5581 5576 5573 5565 5560 5555 5548 5542 5537 5531 5525 5520 5516 5513 5510 5507 5505 5504 5502 5504 5506 5510 5515 5519 5523 5528 5535 5542 5548
5670 5663 5654 5646 5640 5634 5627 5620 5615 5609 5601 5594 5587 5582 5577 5572 5567 5561 5557 5551 5545 5538 5533 5525 5519 5514 5510 5507 5504 5502 5501 5501 5499 5500 5503 5507 5511 5514 5517 5523 5529 5535 5541
5665 5658 5650 5642 5635 5630 5624 5618 5612 5605 5597 5590 5584 5579 5574 5569 5565 5560 5554 5548 5542 5535 5528 5521 5515 5510 5506 5503 5500 5497 5497 5497 5497 5497 5499 5503 5506 5509 5514 5518 5524 5530 5537
5660 5653 5645 5638 5632 5626 5621 5615 5608 5601 5593 5586 5581 5576 5571 5566 5562 5558 5552 5546 5540 5533 5526 5520 5513 5508 5504 5501 5497 5494 5494 5494 5493 5493 5494 5497 5500 5504 5509 5515 5520 5525 5531
5657 5649 5642 5635 5629 5623 5617 5612 5605 5597 5590 5583 5579 5574 5569 5565 5560 5556 5552 5547 5541 5535 5528 5520 5513 5508 5503 5500 5497 5495 5494 5494 5494 5493 5495 5497 5501 5505 5509 5514 5518 5523 5529